| Back to River Map | Start of River Group | | | Next Forecast Point >>> | Printer Version | Graph Version |  |
|
MCDERMITT CREEK - MCDERMITT (MDCN2)
| Latitude: 41.97º N | Longitude: 117.83º W | Elevation: 4545 Feet | | Forecast Type: Unofficial Location |
| Location: Humboldt County in Nevada | Bulletin Group: Humboldt | River Group: Humboldt |
| Issuance Time: | May 07 2026 at 7:40 AM PDT | Next Issuance: | May 08 2026 at 9:00 AM PDT
| |
| Action/Monitor: N/A | Minor Flood: N/A | Moderate Flood: N/A | Major Flood: N/A |
# Tabular Observed and Forecast Hydrograph Information
#
# Location: McDermitt Creek - McDermitt (MDCN2)
#
# File Generation Time: 05/07/2026 at 07:41 AM PDT
# Data Interval: 1 Hour
#
# Most Recent Date & Time of Maximum Observed: 05/05/2026 at 01:00 AM PDT
# Maximum Observed Stage: 2.67 Feet
# Maximum Observed Flow: 19 cfs
#
# Earliest Date & Time of Maximum Forecast: 05/07/2026 at 08:00 AM PDT
# Maximum Forecast Stage: 2.39 Feet
# Maximum Forecast Flow: 9 cfs
#
# OBSERVED
#
# Date & Time (Local) Stage (Feet) Flow (cfs) Trend Observed Status
# ---------------------------------------------------------------------------------
05/02/2026 07 AM PDT 2.58 15 Not Applicable
05/02/2026 08 AM PDT 2.58 15 0 Not Applicable
05/02/2026 09 AM PDT 2.58 15 0 Not Applicable
05/02/2026 10 AM PDT 2.58 15 0 Not Applicable
05/02/2026 11 AM PDT 2.58 15 0 Not Applicable
05/02/2026 12 PM PDT 2.58 15 0 Not Applicable
05/02/2026 01 PM PDT 2.59 16 + Not Applicable
05/02/2026 02 PM PDT 2.58 15 - Not Applicable
05/02/2026 03 PM PDT 2.58 15 0 Not Applicable
05/02/2026 04 PM PDT 2.58 15 0 Not Applicable
05/02/2026 05 PM PDT 2.59 16 + Not Applicable
05/02/2026 06 PM PDT 2.59 16 0 Not Applicable
05/02/2026 07 PM PDT 2.61 16 + Not Applicable
05/02/2026 08 PM PDT 2.63 17 + Not Applicable
05/02/2026 09 PM PDT 2.65 18 + Not Applicable
05/02/2026 10 PM PDT 2.66 18 + Not Applicable
05/02/2026 11 PM PDT 2.66 18 0 Not Applicable
05/03/2026 12 AM PDT 2.65 18 - Not Applicable
05/03/2026 01 AM PDT 2.65 18 0 Not Applicable
05/03/2026 02 AM PDT 2.65 18 0 Not Applicable
05/03/2026 03 AM PDT 2.64 18 - Not Applicable
05/03/2026 04 AM PDT 2.63 17 - Not Applicable
05/03/2026 05 AM PDT 2.62 17 - Not Applicable
05/03/2026 06 AM PDT 2.61 16 - Not Applicable
05/03/2026 07 AM PDT 2.60 16 - Not Applicable
05/03/2026 08 AM PDT 2.60 16 0 Not Applicable
05/03/2026 09 AM PDT 2.60 16 0 Not Applicable
05/03/2026 10 AM PDT 2.60 16 0 Not Applicable
05/03/2026 11 AM PDT 2.60 16 0 Not Applicable
05/03/2026 12 PM PDT 2.59 16 - Not Applicable
05/03/2026 01 PM PDT 2.59 16 0 Not Applicable
05/03/2026 02 PM PDT 2.59 16 0 Not Applicable
05/03/2026 03 PM PDT 2.58 15 - Not Applicable
05/03/2026 04 PM PDT 2.58 15 0 Not Applicable
05/03/2026 05 PM PDT 2.58 15 0 Not Applicable
05/03/2026 06 PM PDT 2.58 15 0 Not Applicable
05/03/2026 07 PM PDT 2.58 15 0 Not Applicable
05/03/2026 08 PM PDT 2.59 16 + Not Applicable
05/03/2026 09 PM PDT 2.59 16 0 Not Applicable
05/03/2026 10 PM PDT 2.61 16 + Not Applicable
05/03/2026 11 PM PDT 2.60 16 - Not Applicable
05/04/2026 12 AM PDT 2.60 16 0 Not Applicable
05/04/2026 01 AM PDT 2.59 16 - Not Applicable
05/04/2026 02 AM PDT 2.60 16 + Not Applicable
05/04/2026 03 AM PDT 2.61 16 + Not Applicable
05/04/2026 04 AM PDT 2.60 16 - Not Applicable
05/04/2026 05 AM PDT 2.60 16 0 Not Applicable
05/04/2026 06 AM PDT 2.59 16 - Not Applicable
05/04/2026 07 AM PDT 2.58 15 - Not Applicable
05/04/2026 08 AM PDT 2.58 15 0 Not Applicable
05/04/2026 09 AM PDT 2.58 15 0 Not Applicable
05/04/2026 10 AM PDT 2.58 15 0 Not Applicable
05/04/2026 11 AM PDT 2.58 15 0 Not Applicable
05/04/2026 12 PM PDT 2.58 15 0 Not Applicable
05/04/2026 01 PM PDT 2.59 16 + Not Applicable
05/04/2026 02 PM PDT 2.59 16 0 Not Applicable
05/04/2026 03 PM PDT 2.59 16 0 Not Applicable
05/04/2026 04 PM PDT 2.59 16 0 Not Applicable
05/04/2026 05 PM PDT 2.58 15 - Not Applicable
05/04/2026 06 PM PDT 2.59 16 + Not Applicable
05/04/2026 07 PM PDT 2.59 16 0 Not Applicable
05/04/2026 08 PM PDT 2.60 16 + Not Applicable
05/04/2026 09 PM PDT 2.63 17 + Not Applicable
05/04/2026 10 PM PDT 2.65 18 + Not Applicable
05/04/2026 11 PM PDT 2.66 18 + Not Applicable
05/05/2026 12 AM PDT 2.66 18 0 Not Applicable
05/05/2026 01 AM PDT 2.67 19 + Not Applicable
05/05/2026 02 AM PDT 2.66 18 - Not Applicable
05/05/2026 03 AM PDT 2.65 18 - Not Applicable
05/05/2026 04 AM PDT 2.64 18 - Not Applicable
05/05/2026 05 AM PDT 2.64 18 0 Not Applicable
05/05/2026 06 AM PDT 2.63 17 - Not Applicable
05/05/2026 07 AM PDT 2.61 16 - Not Applicable
05/05/2026 08 AM PDT 2.60 16 - Not Applicable
05/05/2026 09 AM PDT 2.60 16 0 Not Applicable
05/05/2026 10 AM PDT 2.60 16 0 Not Applicable
05/05/2026 11 AM PDT 2.59 16 - Not Applicable
05/05/2026 12 PM PDT 2.58 15 - Not Applicable
05/05/2026 01 PM PDT 2.58 15 0 Not Applicable
05/05/2026 02 PM PDT 2.42 10 - Not Applicable
05/05/2026 03 PM PDT 2.41 10 - Not Applicable
05/05/2026 04 PM PDT 2.41 10 0 Not Applicable
05/05/2026 05 PM PDT 2.41 10 0 Not Applicable
05/05/2026 06 PM PDT 2.41 10 0 Not Applicable
05/05/2026 07 PM PDT 2.41 10 0 Not Applicable
05/05/2026 08 PM PDT 2.41 10 0 Not Applicable
05/05/2026 09 PM PDT 2.41 10 0 Not Applicable
05/05/2026 10 PM PDT 2.42 10 + Not Applicable
05/05/2026 11 PM PDT 2.42 10 0 Not Applicable
05/06/2026 12 AM PDT 2.42 10 0 Not Applicable
05/06/2026 01 AM PDT 2.42 10 0 Not Applicable
05/06/2026 02 AM PDT 2.42 10 0 Not Applicable
05/06/2026 03 AM PDT 2.41 10 - Not Applicable
05/06/2026 04 AM PDT 2.42 10 + Not Applicable
05/06/2026 05 AM PDT 2.42 10 0 Not Applicable
05/06/2026 06 AM PDT 2.40 10 - Not Applicable
05/06/2026 07 AM PDT 2.40 10 0 Not Applicable
05/06/2026 08 AM PDT 2.40 10 0 Not Applicable
05/06/2026 09 AM PDT 2.39 9 - Not Applicable
05/06/2026 10 AM PDT 2.40 10 + Not Applicable
05/06/2026 11 AM PDT 2.40 10 0 Not Applicable
05/06/2026 12 PM PDT 2.39 9 - Not Applicable
05/06/2026 01 PM PDT 2.40 10 + Not Applicable
05/06/2026 02 PM PDT 2.39 9 - Not Applicable
05/06/2026 03 PM PDT 2.39 9 0 Not Applicable
05/06/2026 04 PM PDT 2.40 10 + Not Applicable
05/06/2026 05 PM PDT 2.39 9 - Not Applicable
05/06/2026 06 PM PDT 2.39 9 0 Not Applicable
05/06/2026 07 PM PDT 2.39 9 0 Not Applicable
05/06/2026 08 PM PDT 2.40 10 + Not Applicable
05/06/2026 09 PM PDT 2.40 10 0 Not Applicable
05/06/2026 10 PM PDT 2.40 10 0 Not Applicable
05/06/2026 11 PM PDT 2.40 10 0 Not Applicable
05/07/2026 12 AM PDT 2.40 10 0 Not Applicable
05/07/2026 01 AM PDT 2.40 10 0 Not Applicable
05/07/2026 02 AM PDT 2.40 10 0 Not Applicable
05/07/2026 03 AM PDT 2.40 10 0 Not Applicable
05/07/2026 04 AM PDT 2.39 9 - Not Applicable
05/07/2026 05 AM PDT 2.40 10 + Not Applicable
05/07/2026 06 AM PDT 2.39 9 - Not Applicable
05/07/2026 07 AM PDT 2.39 9 0 Not Applicable
#
# FORECAST
#
# Date & Time (Local) Stage (Feet) Flow (cfs) Trend Forecast Status
# ---------------------------------------------------------------------------------
05/07/2026 08 AM PDT 2.39 9 Not Applicable
05/07/2026 09 AM PDT 2.39 9 0 Not Applicable
05/07/2026 10 AM PDT 2.39 9 0 Not Applicable
05/07/2026 11 AM PDT 2.39 9 0 Not Applicable
05/07/2026 12 PM PDT 2.39 9 0 Not Applicable
05/07/2026 01 PM PDT 2.39 9 0 Not Applicable
05/07/2026 02 PM PDT 2.39 9 0 Not Applicable
05/07/2026 03 PM PDT 2.39 9 0 Not Applicable
05/07/2026 04 PM PDT 2.39 9 0 Not Applicable
05/07/2026 05 PM PDT 2.39 9 0 Not Applicable
05/07/2026 06 PM PDT 2.39 9 0 Not Applicable
05/07/2026 07 PM PDT 2.39 9 0 Not Applicable
05/07/2026 08 PM PDT 2.39 9 0 Not Applicable
05/07/2026 09 PM PDT 2.39 9 0 Not Applicable
05/07/2026 10 PM PDT 2.39 9 0 Not Applicable
05/07/2026 11 PM PDT 2.38 9 - Not Applicable
05/08/2026 12 AM PDT 2.38 9 0 Not Applicable
05/08/2026 01 AM PDT 2.38 9 0 Not Applicable
05/08/2026 02 AM PDT 2.38 9 0 Not Applicable
05/08/2026 03 AM PDT 2.38 9 0 Not Applicable
05/08/2026 04 AM PDT 2.38 9 0 Not Applicable
05/08/2026 05 AM PDT 2.38 9 0 Not Applicable
05/08/2026 06 AM PDT 2.38 9 0 Not Applicable
05/08/2026 07 AM PDT 2.38 9 0 Not Applicable
05/08/2026 08 AM PDT 2.38 9 0 Not Applicable
05/08/2026 09 AM PDT 2.38 9 0 Not Applicable
05/08/2026 10 AM PDT 2.38 9 0 Not Applicable
05/08/2026 11 AM PDT 2.38 9 0 Not Applicable
05/08/2026 12 PM PDT 2.38 9 0 Not Applicable
05/08/2026 01 PM PDT 2.38 9 0 Not Applicable
05/08/2026 02 PM PDT 2.38 9 0 Not Applicable
05/08/2026 03 PM PDT 2.38 9 0 Not Applicable
05/08/2026 04 PM PDT 2.38 9 0 Not Applicable
05/08/2026 05 PM PDT 2.38 9 0 Not Applicable
05/08/2026 06 PM PDT 2.38 9 0 Not Applicable
05/08/2026 07 PM PDT 2.38 9 0 Not Applicable
05/08/2026 08 PM PDT 2.38 9 0 Not Applicable
05/08/2026 09 PM PDT 2.38 9 0 Not Applicable
05/08/2026 10 PM PDT 2.38 9 0 Not Applicable
05/08/2026 11 PM PDT 2.38 9 0 Not Applicable
05/09/2026 12 AM PDT 2.38 9 0 Not Applicable
05/09/2026 01 AM PDT 2.38 9 0 Not Applicable
05/09/2026 02 AM PDT 2.38 9 0 Not Applicable
05/09/2026 03 AM PDT 2.38 9 0 Not Applicable
05/09/2026 04 AM PDT 2.38 9 0 Not Applicable
05/09/2026 05 AM PDT 2.38 9 0 Not Applicable
05/09/2026 06 AM PDT 2.38 9 0 Not Applicable
05/09/2026 07 AM PDT 2.38 9 0 Not Applicable
05/09/2026 08 AM PDT 2.38 9 0 Not Applicable
05/09/2026 09 AM PDT 2.38 9 0 Not Applicable
05/09/2026 10 AM PDT 2.38 9 0 Not Applicable
05/09/2026 11 AM PDT 2.38 9 0 Not Applicable
05/09/2026 12 PM PDT 2.38 9 0 Not Applicable
05/09/2026 01 PM PDT 2.38 9 0 Not Applicable
05/09/2026 02 PM PDT 2.38 9 0 Not Applicable
05/09/2026 03 PM PDT 2.38 9 0 Not Applicable
05/09/2026 04 PM PDT 2.38 9 0 Not Applicable
05/09/2026 05 PM PDT 2.38 9 0 Not Applicable
05/09/2026 06 PM PDT 2.38 9 0 Not Applicable
05/09/2026 07 PM PDT 2.38 9 0 Not Applicable
05/09/2026 08 PM PDT 2.38 9 0 Not Applicable
05/09/2026 09 PM PDT 2.37 9 - Not Applicable
05/09/2026 10 PM PDT 2.37 9 0 Not Applicable
05/09/2026 11 PM PDT 2.37 9 0 Not Applicable
05/10/2026 12 AM PDT 2.37 9 0 Not Applicable
05/10/2026 01 AM PDT 2.37 9 0 Not Applicable
05/10/2026 02 AM PDT 2.37 9 0 Not Applicable
05/10/2026 03 AM PDT 2.37 9 0 Not Applicable
05/10/2026 04 AM PDT 2.37 9 0 Not Applicable
05/10/2026 05 AM PDT 2.37 9 0 Not Applicable
05/10/2026 06 AM PDT 2.37 9 0 Not Applicable
05/10/2026 07 AM PDT 2.37 9 0 Not Applicable
05/10/2026 08 AM PDT 2.37 9 0 Not Applicable
05/10/2026 09 AM PDT 2.37 9 0 Not Applicable
05/10/2026 10 AM PDT 2.37 9 0 Not Applicable
05/10/2026 11 AM PDT 2.37 9 0 Not Applicable
05/10/2026 12 PM PDT 2.37 9 0 Not Applicable
05/10/2026 01 PM PDT 2.37 9 0 Not Applicable
05/10/2026 02 PM PDT 2.37 9 0 Not Applicable
05/10/2026 03 PM PDT 2.37 9 0 Not Applicable
05/10/2026 04 PM PDT 2.37 9 0 Not Applicable
05/10/2026 05 PM PDT 2.37 9 0 Not Applicable
05/10/2026 06 PM PDT 2.37 9 0 Not Applicable
05/10/2026 07 PM PDT 2.37 9 0 Not Applicable
05/10/2026 08 PM PDT 2.37 9 0 Not Applicable
05/10/2026 09 PM PDT 2.37 9 0 Not Applicable
05/10/2026 10 PM PDT 2.37 9 0 Not Applicable
05/10/2026 11 PM PDT 2.37 9 0 Not Applicable
05/11/2026 12 AM PDT 2.37 9 0 Not Applicable
05/11/2026 01 AM PDT 2.37 9 0 Not Applicable
05/11/2026 02 AM PDT 2.37 9 0 Not Applicable
05/11/2026 03 AM PDT 2.37 9 0 Not Applicable
05/11/2026 04 AM PDT 2.37 9 0 Not Applicable
05/11/2026 05 AM PDT 2.37 9 0 Not Applicable
05/11/2026 06 AM PDT 2.37 9 0 Not Applicable
05/11/2026 07 AM PDT 2.37 9 0 Not Applicable
05/11/2026 08 AM PDT 2.37 9 0 Not Applicable
05/11/2026 09 AM PDT 2.37 9 0 Not Applicable
05/11/2026 10 AM PDT 2.37 9 0 Not Applicable
05/11/2026 11 AM PDT 2.37 9 0 Not Applicable
05/11/2026 12 PM PDT 2.37 9 0 Not Applicable
05/11/2026 01 PM PDT 2.37 9 0 Not Applicable
05/11/2026 02 PM PDT 2.37 9 0 Not Applicable
05/11/2026 03 PM PDT 2.37 9 0 Not Applicable
05/11/2026 04 PM PDT 2.37 9 0 Not Applicable
05/11/2026 05 PM PDT 2.37 9 0 Not Applicable
05/11/2026 06 PM PDT 2.37 9 0 Not Applicable
05/11/2026 07 PM PDT 2.36 9 - Not Applicable
05/11/2026 08 PM PDT 2.36 9 0 Not Applicable
05/11/2026 09 PM PDT 2.36 9 0 Not Applicable
05/11/2026 10 PM PDT 2.36 9 0 Not Applicable
05/11/2026 11 PM PDT 2.36 9 0 Not Applicable
05/12/2026 12 AM PDT 2.36 9 0 Not Applicable
05/12/2026 01 AM PDT 2.36 9 0 Not Applicable
05/12/2026 02 AM PDT 2.36 9 0 Not Applicable
05/12/2026 03 AM PDT 2.36 9 0 Not Applicable
05/12/2026 04 AM PDT 2.36 9 0 Not Applicable
05/12/2026 05 AM PDT 2.36 9 0 Not Applicable
#
# NOTE 1: Stages are rounded to the nearest hundredth (.01) of a foot.
# NOTE 2: Flows are rounded to the nearest (1) cfs.
# NOTE 3: Trends are determined using hourly change in unrounded stage and flow.
# NOTE 4: Maximum Values are determined using unrounded stage and flow.
|